SCP
0 0 0 0 0 0 0 0 0 0 0 0 0 0 0 0 0 0 0 0 0 0 0 0 0 0 0 0 0 0 0 0 0 0 0 0 0 0
0 0 0 0 0 0 0 0 0 0 0 0 0 0 0 0 0 0 0 0 0 0 0 0 0 0 0 0 0 0 0 0 0 0 0 0 0 0
0 0 0 0 0 0 0 0 0 0 0 0 0 0 0 0 0 0 0 0 0 0 0 0 0 0 0 0 0 0 0 0 0 0 0 0 0 0
0 0 0 0 0 0 0 0 0 0 0 0 0 0 0 0 0 0 0 0 0 0 0 0 0 0 0 0 0 0 0 0 0 0 0 0 0 0
0 0 0 0 0 0 0 0 0 0 0 0 0 0 0 0 0 0 0 0 0 0 0 0 0 0 0 0 0 0 0 0 0 0 0 0 0 0
0 0 0 0 0 0 0 0 0 0 0 0 0 0 0 0 0 0 0 0 0 0 0 0 0 0 0 0 0 0 0 0 0 0 0 0 0 0
0 0 0 0 0 0 0 0 0 0 0 0 0 0 0 0 0 0 0 0 0 0 0 0 0 0 0 0 0 0 0 0 0 0 0 0 0 0
0 0 0 0 0 0 0 0 0 0 0 0 0 0 0 0 0 0 0 0 0 0 0 0 0 0 0 0 0 0 0 0 0 0 0 0 0 0
0 0 0 0 0 0 0 0 0 0 0 0 0 0 0 0 0 0 0 0 0 0 0 0 0 0 0 0 0 0 0 0 0 0 0 0 0 0
0 0 0 0 0 0 0 0 0 0 0 0 0 0 0 0 0 0 0 0 0 0 0 0 0 0 0 0 0 0 0 0 0 0 0 0 0 0
0 0 0 0 0 0 0 0 0 0 0 0 0 0 0 0 0 0 0 0 0 0 0 0 0 0 0 0 0 0 0 0 0 0 0 0 0 0
0 0 0 0 0 0 0 0 0 0 0 0 0 0 0 0 0 0 0 0 0 0 0 0 0 0 0 0 0 0 0 0 0 0 0 0 0 0
0 0 0 0 0 0 0 0 0 0 0 0 0 0 0 0 0 0 0 0 0 0 0 0 0 0 0 0 0 0 0 0 0 0 0 0 0 0
0 0 0 0 0 0 0 0 0 0 0 0 0 0 0 0 0 0 0 0 0 0 0 0 0 0 0 0 0 0 0 0 0 0 0 0 0 0
0 0 0 0 0 0 0 0 0 0 0 0 0 0 0 0 0 0 0 0 0 0 0 0 0 0 0 0 0 0 0 0 0 0 0 0 0 0
0 0 0 0 0 0 0 0 0 0 0 0 0 0 0 0 0 0 0 0 0 0 0 0 0 0 0 0 0 0 0 0 0 0 0 0 0 0
0 0 0 0 0 0 0 0 0 0 0 0 0 0 0 0 0 0 0 0 0 0 0 0 0 0 0 0 0 0 0 0 0 0 0 0 0 0
0 0 0 0 0 0 0 0 0 0 0 0 0 0 0 0 0 0 0 0 0 0 0 0 0 0 0 0 0 0 0 0 0 0 0 0 0 0
0 0 0 0 0 0 0 0 0 0 0 0 0 0 0 0 0 0 0 0 0 0 0 0 0 0 0 0 0 0 0 0 0 0 0 0 0 0
0 0 0 0 0 0 0 0 0 0 0 0 0 0 0 0 0 0 0 0 0 0 0 0 0 0 0 0 0 0 0 0 0 0 0 0 0 0
0 0 0 0 0 0 0 0 0 0 0 0 0 0 0 0 0 0 0 0 0 0 0 0 0 0 0 0 0 0 0 0 0 0 0 0 0 0
0 0 0 0 0 0 0 0 0 0 0 0 0 0 0 0 0 0 0 0 0 0 0 0 0 0 0 0 0 0 0 0 0 0 0 0 0 0
0 0 0 0 0 0 0 0 0 0 0 0 0 0 0 0 0 0 0 0 0 0 0 0 0 0 0 0 0 0 0 0 0 0 0 0 0 0
Wind_Speed_500mb
49 53 56 48 45 56 58 65 60 45 60 59 56 71 73 73 71 64 59 55 50 48 46 43 46 47 48 50 51 53 49 43 47 53 57 61 63 64
59 51 50 45 47 55 62 66 60 58 50 60 63 61 67 68 61 57 57 52 49 44 47 50 51 50 48 46 43 42 46 50 53 57 59 63 66 68
50 51 41 43 40 43 42 49 51 45 49 47 52 55 55 56 59 54 52 47 46 48 47 41 34 34 39 41 43 46 48 50 54 57 61 64 67 67
34 33 35 33 34 31 33 39 41 44 46 43 42 47 47 47 49 48 43 40 35 36 29 34 36 38 42 42 45 47 50 54 55 57 59 62 63 64
28 26 26 21 23 22 25 26 29 32 34 27 36 40 41 42 38 35 30 26 25 28 30 32 35 39 42 43 46 46 51 54 54 55 57 59 62 63
29 29 28 22 21 20 20 21 20 21 18 18 23 30 31 33 27 20 22 21 24 29 31 30 32 36 39 43 47 48 49 49 51 54 56 60 61 61
39 37 36 33 34 31 27 27 22 21 22 24 25 26 26 24 22 20 21 22 26 30 30 29 32 38 42 42 45 43 43 48 52 55 54 51 54 60
44 41 38 35 34 30 26 26 25 21 21 20 22 20 18 16 16 16 20 23 24 27 28 35 40 40 42 42 43 43 45 47 49 44 42 54 61 63
36 35 33 30 27 23 23 21 19 17 15 13 11 10 12 14 17 20 23 28 30 36 46 47 46 42 44 41 48 47 43 40 35 35 54 55 59 62
29 27 24 24 22 18 17 14 12 9 7 5 5 6 10 15 20 24 29 33 34 39 47 53 46 49 52 51 51 44 35 29 45 50 55 55 61 67
22 21 19 17 15 12 11 8 6 3 1 4 7 11 16 20 25 28 33 37 39 41 49 51 46 64 67 59 47 31 43 52 59 60 58 64 68 72
15 13 11 8 7 6 5 4 2 3 6 10 14 18 21 25 29 31 34 37 39 41 40 55 60 59 51 52 24 61 56 59 61 62 65 68 68 70
9 8 6 4 3 1 2 2 4 7 9 11 15 20 24 27 31 35 38 42 42 43 47 55 63 65 64 74 80 77 73 69 70 69 69 65 59 67
1 2 3 4 5 6 8 10 12 14 16 19 22 24 28 32 35 38 42 46 48 50 49 57 69 65 70 84 93 87 80 77 75 75 68 71 70 66
10 11 12 14 15 16 19 22 24 26 28 30 33 33 34 36 39 41 46 52 53 51 52 55 62 64 69 78 86 88 90 87 69 74 86 81 77 73
21 23 25 26 28 29 31 32 35 38 42 43 44 48 49 49 50 51 52 53 58 53 49 52 57 63 71 74 78 89 83 86 84 81 85 84 79 79
35 36 38 38 39 40 43 44 45 49 53 52 55 58 61 61 61 58 62 62 67 68 63 58 62 69 75 76 84 83 81 82 81 85 84 91 84 80
50 50 52 51 52 52 53 54 55 58 60 61 64 67 71 73 72 68 71 73 75 74 73 66 64 72 80 83 74 79 80 83 78 86 90 92 96 84
60 65 66 64 62 62 63 64 66 65 65 71 73 75 77 79 79 78 78 79 81 80 75 69 69 69 76 87 88 72 71 77 85 91 89 83 89 87
70 75 76 76 76 76 76 77 76 74 75 76 78 82 82 82 83 83 82 81 81 80 79 72 69 66 68 77 85 90 69 75 80 90 87 83 85 81
80 83 82 83 85 87 88 88 88 88 86 84 82 83 83 81 83 82 79 77 76 75 80 75 63 62 65 72 85 93 84 70 72 76 78 80 87 84
89 94 94 94 95 95 94 94 95 95 93 91 88 86 79 76 76 74 71 69 69 71 73 67 62 60 63 71 84 89 90 81 65 69 72 65 68 65
89 91 92 93 94 94 96 96 95 96 93 93 87 80 73 72 68 65 65 65 66 65 62 64 61 62 64 70 78 85 86 82 79 77 69 56 51 51
Wind_Direction_500mb
232 235 237 237 241 241 240 245 238 225 224 221 225 225 223 224 227 232 236 240 245 253 261 262 261 261 264 263 265 270 276 276 274 275 277 278 281 284
227 228 229 238 236 243 242 243 242 239 232 232 230 234 228 230 233 235 239 242 248 251 257 259 261 263 264 269 274 273 275 277 280 282 283 286 287 288
227 226 230 228 230 233 233 241 234 242 242 236 226 232 231 230 228 234 238 241 246 250 253 260 272 277 276 275 277 278 279 279 277 279 282 285 286 286
205 210 223 223 223 227 235 231 232 236 233 232 224 219 220 223 223 224 228 239 247 254 268 265 269 272 274 277 279 280 280 279 283 286 287 286 286 286
193 191 193 190 206 204 214 217 222 217 209 213 210 204 204 207 211 220 226 235 243 249 260 267 272 276 278 280 280 284 286 287 288 288 287 287 286 286
154 156 152 155 150 145 145 144 153 164 165 165 178 185 194 199 205 215 230 241 257 267 273 279 278 278 281 282 285 288 289 288 287 288 288 285 283 284
145 140 134 135 130 129 133 133 132 135 143 151 154 171 184 191 203 218 239 253 267 274 274 274 269 282 283 288 288 286 285 286 287 287 285 284 287 288
132 131 131 133 130 131 131 128 127 126 141 146 155 171 188 205 229 251 267 275 284 279 278 274 284 287 287 288 289 288 291 291 289 283 280 286 286 284
129 129 129 126 125 127 126 126 132 140 148 151 165 193 224 246 263 273 280 285 294 298 297 295 298 297 294 294 295 298 298 291 279 280 292 289 287 287
125 122 124 125 123 120 121 123 125 128 132 149 196 242 270 281 289 295 297 297 299 299 300 297 304 301 300 304 303 304 301 295 301 300 300 297 295 295
126 125 124 123 122 121 119 115 111 121 34 307 296 285 281 284 290 297 299 303 304 306 306 302 308 309 309 310 306 304 308 311 310 308 306 301 300 298
124 125 126 123 109 110 121 120 65 352 332 317 313 307 304 304 303 303 300 298 302 314 311 307 309 315 316 310 290 303 305 307 303 307 304 303 304 300
139 140 131 98 90 42 28 3 340 322 319 312 309 309 307 304 304 303 303 302 301 301 304 300 301 308 307 304 301 308 312 312 311 309 305 304 303 302
209 254 261 285 294 298 305 311 311 310 309 308 309 311 308 307 304 301 300 298 299 303 301 298 297 301 299 296 297 306 309 311 312 309 308 307 305 302
252 258 271 276 283 297 301 300 301 304 303 303 301 299 298 299 300 300 301 299 298 301 299 293 290 293 290 291 298 303 310 314 313 310 310 310 308 308
272 276 278 281 283 281 281 283 287 287 287 289 293 292 292 292 293 292 293 294 295 301 298 296 294 293 293 293 297 301 308 305 310 309 308 306 308 305
275 274 274 275 274 273 273 272 275 278 282 286 286 287 287 287 290 290 291 291 293 300 303 304 303 299 295 296 296 300 306 304 310 309 308 306 307 306
273 273 272 272 273 275 274 275 275 277 281 284 284 285 286 287 288 287 286 287 289 291 296 300 299 296 296 297 297 304 304 307 310 309 308 308 308 310
273 278 279 280 282 282 281 281 281 283 283 282 282 282 282 282 282 282 280 280 282 285 289 291 296 297 297 297 301 301 301 307 308 304 303 303 302 308
272 276 279 282 284 283 283 283 283 282 281 282 283 283 282 281 280 279 279 280 281 282 284 286 290 295 294 295 297 296 302 306 307 304 305 306 304 307
275 275 277 279 281 283 285 285 286 286 286 285 284 284 283 281 280 280 280 279 279 278 280 285 294 294 297 298 291 300 308 310 308 300 303 300 302 305
278 279 282 283 283 284 284 284 284 284 285 286 287 287 284 283 281 281 279 279 279 280 283 287 293 295 297 294 296 302 307 311 308 306 304 287 281 275
278 279 280 280 280 280 281 282 282 282 283 286 286 285 285 282 281 277 276 276 279 280 282 288 294 296 297 296 299 302 306 309 313 315 308 314 309 296
Wind_Speed_850mb
49 53 56 48 45 56 58 65 60 45 60 59 56 71 73 73 71 64 59 55 50 48 46 43 46 47 48 50 51 53 49 43 47 53 57 61 63 64
59 51 50 45 47 55 62 66 60 58 50 60 63 61 67 68 61 57 57 52 49 44 47 50 51 50 48 46 43 42 46 50 53 57 59 63 66 68
50 51 41 43 40 43 42 49 51 45 49 47 52 55 55 56 59 54 52 47 46 48 47 41 34 34 39 41 43 46 48 50 54 57 61 64 67 67
34 33 35 33 34 31 33 39 41 44 46 43 42 47 47 47 49 48 43 40 35 36 29 34 36 38 42 42 45 47 50 54 55 57 59 62 63 64
28 26 26 21 23 22 25 26 29 32 34 27 36 40 41 42 38 35 30 26 25 28 30 32 35 39 42 43 46 46 51 54 54 55 57 59 62 63
29 29 28 22 21 20 20 21 20 21 18 18 23 30 31 33 27 20 22 21 24 29 31 30 32 36 39 43 47 48 49 49 51 54 56 60 61 61
39 37 36 33 34 31 27 27 22 21 22 24 25 26 26 24 22 20 21 22 26 30 30 29 32 38 42 42 45 43 43 48 52 55 54 51 54 60
44 41 38 35 34 30 26 26 25 21 21 20 22 20 18 16 16 16 20 23 24 27 28 35 40 40 42 42 43 43 45 47 49 44 42 54 61 63
36 35 33 30 27 23 23 21 19 17 15 13 11 10 12 14 17 20 23 28 30 36 46 47 46 42 44 41 48 47 43 40 35 35 54 55 59 62
29 27 24 24 22 18 17 14 12 9 7 5 5 6 10 15 20 24 29 33 34 39 47 53 46 49 52 51 51 44 35 29 45 50 55 55 61 67
22 21 19 17 15 12 11 8 6 3 1 4 7 11 16 20 25 28 33 37 39 41 49 51 46 64 67 59 47 31 43 52 59 60 58 64 68 72
15 13 11 8 7 6 5 4 2 3 6 10 14 18 21 25 29 31 34 37 39 41 40 55 60 59 51 52 24 61 56 59 61 62 65 68 68 70
9 8 6 4 3 1 2 2 4 7 9 11 15 20 24 27 31 35 38 42 42 43 47 55 63 65 64 74 80 77 73 69 70 69 69 65 59 67
1 2 3 4 5 6 8 10 12 14 16 19 22 24 28 32 35 38 42 46 48 50 49 57 69 65 70 84 93 87 80 77 75 75 68 71 70 66
10 11 12 14 15 16 19 22 24 26 28 30 33 33 34 36 39 41 46 52 53 51 52 55 62 64 69 78 86 88 90 87 69 74 86 81 77 73
21 23 25 26 28 29 31 32 35 38 42 43 44 48 49 49 50 51 52 53 58 53 49 52 57 63 71 74 78 89 83 86 84 81 85 84 79 79
35 36 38 38 39 40 43 44 45 49 53 52 55 58 61 61 61 58 62 62 67 68 63 58 62 69 75 76 84 83 81 82 81 85 84 91 84 80
50 50 52 51 52 52 53 54 55 58 60 61 64 67 71 73 72 68 71 73 75 74 73 66 64 72 80 83 74 79 80 83 78 86 90 92 96 84
60 65 66 64 62 62 63 64 66 65 65 71 73 75 77 79 79 78 78 79 81 80 75 69 69 69 76 87 88 72 71 77 85 91 89 83 89 87
70 75 76 76 76 76 76 77 76 74 75 76 78 82 82 82 83 83 82 81 81 80 79 72 69 66 68 77 85 90 69 75 80 90 87 83 85 81
80 83 82 83 85 87 88 88 88 88 86 84 82 83 83 81 83 82 79 77 76 75 80 75 63 62 65 72 85 93 84 70 72 76 78 80 87 84
89 94 94 94 95 95 94 94 95 95 93 91 88 86 79 76 76 74 71 69 69 71 73 67 62 60 63 71 84 89 90 81 65 69 72 65 68 65
89 91 92 93 94 94 96 96 95 96 93 93 87 80 73 72 68 65 65 65 66 65 62 64 61 62 64 70 78 85 86 82 79 77 69 56 51 51
Wind_Direction_850mb
232 235 237 237 241 241 240 245 238 225 224 221 225 225 223 224 227 232 236 240 245 253 261 262 261 261 264 263 265 270 276 276 274 275 277 278 281 284
227 228 229 238 236 243 242 243 242 239 232 232 230 234 228 230 233 235 239 242 248 251 257 259 261 263 264 269 274 273 275 277 280 282 283 286 287 288
227 226 230 228 230 233 233 241 234 242 242 236 226 232 231 230 228 234 238 241 246 250 253 260 272 277 276 275 277 278 279 279 277 279 282 285 286 286
205 210 223 223 223 227 235 231 232 236 233 232 224 219 220 223 223 224 228 239 247 254 268 265 269 272 274 277 279 280 280 279 283 286 287 286 286 286
193 191 193 190 206 204 214 217 222 217 209 213 210 204 204 207 211 220 226 235 243 249 260 267 272 276 278 280 280 284 286 287 288 288 287 287 286 286
154 156 152 155 150 145 145 144 153 164 165 165 178 185 194 199 205 215 230 241 257 267 273 279 278 278 281 282 285 288 289 288 287 288 288 285 283 284
145 140 134 135 130 129 133 133 132 135 143 151 154 171 184 191 203 218 239 253 267 274 274 274 269 282 283 288 288 286 285 286 287 287 285 284 287 288
132 131 131 133 130 131 131 128 127 126 141 146 155 171 188 205 229 251 267 275 284 279 278 274 284 287 287 288 289 288 291 291 289 283 280 286 286 284
129 129 129 126 125 127 126 126 132 140 148 151 165 193 224 246 263 273 280 285 294 298 297 295 298 297 294 294 295 298 298 291 279 280 292 289 287 287
125 122 124 125 123 120 121 123 125 128 132 149 196 242 270 281 289 295 297 297 299 299 300 297 304 301 300 304 303 304 301 295 301 300 300 297 295 295
126 125 124 123 122 121 119 115 111 121 34 307 296 285 281 284 290 297 299 303 304 306 306 302 308 309 309 310 306 304 308 311 310 308 306 301 300 298
124 125 126 123 109 110 121 120 65 352 332 317 313 307 304 304 303 303 300 298 302 314 311 307 309 315 316 310 290 303 305 307 303 307 304 303 304 300
139 140 131 98 90 42 28 3 340 322 319 312 309 309 307 304 304 303 303 302 301 301 304 300 301 308 307 304 301 308 312 312 311 309 305 304 303 302
209 254 261 285 294 298 305 311 311 310 309 308 309 311 308 307 304 301 300 298 299 303 301 298 297 301 299 296 297 306 309 311 312 309 308 307 305 302
252 258 271 276 283 297 301 300 301 304 303 303 301 299 298 299 300 300 301 299 298 301 299 293 290 293 290 291 298 303 310 314 313 310 310 310 308 308
272 276 278 281 283 281 281 283 287 287 287 289 293 292 292 292 293 292 293 294 295 301 298 296 294 293 293 293 297 301 308 305 310 309 308 306 308 305
275 274 274 275 274 273 273 272 275 278 282 286 286 287 287 287 290 290 291 291 293 300 303 304 303 299 295 296 296 300 306 304 310 309 308 306 307 306
273 273 272 272 273 275 274 275 275 277 281 284 284 285 286 287 288 287 286 287 289 291 296 300 299 296 296 297 297 304 304 307 310 309 308 308 308 310
273 278 279 280 282 282 281 281 281 283 283 282 282 282 282 282 282 282 280 280 282 285 289 291 296 297 297 297 301 301 301 307 308 304 303 303 302 308
272 276 279 282 284 283 283 283 283 282 281 282 283 283 282 281 280 279 279 280 281 282 284 286 290 295 294 295 297 296 302 306 307 304 305 306 304 307
275 275 277 279 281 283 285 285 286 286 286 285 284 284 283 281 280 280 280 279 279 278 280 285 294 294 297 298 291 300 308 310 308 300 303 300 302 305
278 279 282 283 283 284 284 284 284 284 285 286 287 287 284 283 281 281 279 279 279 280 283 287 293 295 297 294 296 302 307 311 308 306 304 287 281 275
278 279 280 280 280 280 281 282 282 282 283 286 286 285 285 282 281 277 276 276 279 280 282 288 294 296 297 296 299 302 306 309 313 315 308 314 309 296